Location: Passo di Treia
(43.2833°N, 13.3333°E)
Time: 06:11:21
(UTC+00:00)

ERBS - Pass Details

Date: 09 December 2019
Orbit: 410 x 430 km, 57.0° (Epoch: 22 January)

Event Time Altitude Azimuth Distance (km) Brightness Sun altitude
Rises 16:03:00 0° 308° (NW) 2,370 6.4 -6.0°
Reaches altitude 10° 16:05:08 10° 302° (WNW) 1,506 5.5 -6.3°
Maximum altitude 16:08:22 45° 228° (SW) 589 3.6 -6.8°
Drops below altitude 10° 16:11:36 10° 155° (SSE) 1,508 5.1 -7.4°
Sets 16:13:44 0° 149° (SSE) 2,372 6.0 -7.7°
